カタログに戻る

STARLINK-1193

運用中通信VLEO
NORAD 45100·PAYLOAD·🇺🇸 United States

打ち上げ Jan 29, 2020 から Cape Canaveral Space Force Station

Loading…

次のパス (今後24時間)

TLE

最新Source: CelesTrak SupGP

元期: Sep 14, 2026, 22:03 UTC

1 45100C 20006BJ  26257.91923611  .00068298  00000+0  36046-3 0  2573
2 45100  53.0412  17.2152 0004421 296.7021  24.3778 15.79886331    16

AllMySatでSTARLINK-1193をリアルタイム追跡

Download on the App Store